QPF
0.00 0.00 0.00 0.00 0.00 0.00 0.00 0.00 0.00 0.00 0.00 0.00 0.00 0.00 0.00 0.00 0.00 0.00 0.00 0.00 0.00 0.01 0.01 0.01 0.00 0.00 0.01 0.00 0.00 0.00 0.00 0.00 0.01
0.01 0.00 0.00 0.00 0.00 0.00 0.00 0.00 0.00 0.00 0.00 0.00 0.00 0.00 0.00 0.00 0.00 0.00 0.00 0.00 0.00 0.00 0.00 0.00 0.00 0.00 0.00 0.00 0.00 0.00 0.00 0.01 0.01
0.01 0.00 0.00 0.00 0.00 0.00 0.00 0.00 0.00 0.00 0.00 0.00 0.00 0.00 0.00 0.00 0.00 0.00 0.00 0.00 0.00 0.00 0.00 0.00 0.00 0.00 0.00 0.00 0.00 0.00 0.00 0.01 0.01
0.01 0.00 0.01 0.00 0.00 0.00 0.00 0.00 0.00 0.00 0.00 0.00 0.00 0.00 0.00 0.00 0.00 0.00 0.00 0.00 0.00 0.00 0.00 0.00 0.00 0.00 0.00 0.00 0.00 0.00 0.00 0.01 0.01
0.00 0.00 0.00 0.00 0.00 0.00 0.00 0.00 0.00 0.00 0.00 0.00 0.00 0.00 0.00 0.00 0.00 0.00 0.00 0.00 0.00 0.00 0.00 0.00 0.00 0.00 0.00 0.00 0.00 0.00 0.00 0.00 0.01
0.00 0.00 0.00 0.00 0.00 0.00 0.00 0.00 0.00 0.00 0.00 0.00 0.00 0.00 0.00 0.00 0.00 0.00 0.00 0.01 0.00 0.00 0.00 0.00 0.00 0.00 0.00 0.00 0.00 0.00 0.00 0.00 0.00
0.00 0.00 0.00 0.00 0.00 0.00 0.00 0.00 0.00 0.00 0.00 0.00 0.00 0.00 0.00 0.00 0.00 0.00 0.00 0.01 0.00 0.00 0.00 0.00 0.00 0.00 0.00 0.00 0.00 0.00 0.00 0.00 0.00
0.00 0.00 0.00 0.00 0.00 0.00 0.00 0.00 0.00 0.00 0.00 0.00 0.00 0.00 0.00 0.00 0.00 0.00 0.00 0.00 0.00 0.00 0.00 0.00 0.00 0.00 0.00 0.00 0.00 0.00 0.00 0.00 0.00
0.00 0.00 0.00 0.00 0.00 0.00 0.00 0.00 0.00 0.00 0.00 0.00 0.00 0.00 0.00 0.00 0.00 0.00 0.00 0.00 0.00 0.00 0.00 0.00 0.00 0.00 0.00 0.00 0.00 0.00 0.00 0.00 0.00
0.00 0.00 0.00 0.00 0.00 0.00 0.00 0.00 0.00 0.00 0.00 0.00 0.00 0.00 0.00 0.00 0.00 0.00 0.00 0.00 0.00 0.00 0.00 0.00 0.00 0.00 0.00 0.00 0.00 0.00 0.00 0.00 0.00
0.00 0.00 0.00 0.00 0.00 0.00 0.00 0.00 0.00 0.00 0.00 0.00 0.00 0.00 0.00 0.00 0.00 0.00 0.00 0.00 0.00 0.00 0.00 0.01 0.01 0.01 0.00 0.00 0.00 0.00 0.00 0.00 0.00
0.00 0.00 0.00 0.00 0.00 0.00 0.00 0.00 0.00 0.00 0.00 0.00 0.00 0.00 0.00 0.00 0.00 0.00 0.00 0.00 0.00 0.00 0.00 0.00 0.00 0.01 0.03 0.05 0.03 0.00 0.00 0.00 0.00
0.00 0.00 0.00 0.00 0.00 0.00 0.00 0.00 0.00 0.00 0.00 0.00 0.00 0.00 0.00 0.00 0.00 0.00 0.00 0.00 0.00 0.00 0.00 0.00 0.00 0.00 0.00 0.00 0.00 0.01 0.00 0.00 0.00
0.00 0.00 0.00 0.00 0.00 0.00 0.00 0.00 0.00 0.00 0.00 0.00 0.00 0.00 0.00 0.00 0.00 0.00 0.00 0.00 0.00 0.00 0.00 0.00 0.00 0.00 0.00 0.00 0.00 0.00 0.01 0.00 0.00
0.00 0.00 0.00 0.00 0.00 0.00 0.00 0.00 0.00 0.00 0.00 0.00 0.00 0.00 0.00 0.00 0.00 0.00 0.00 0.00 0.00 0.00 0.00 0.00 0.00 0.00 0.00 0.00 0.00 0.00 0.00 0.00 0.00
0.00 0.00 0.00 0.00 0.00 0.00 0.00 0.00 0.00 0.00 0.00 0.00 0.00 0.00 0.00 0.00 0.00 0.00 0.00 0.00 0.00 0.00 0.00 0.00 0.00 0.00 0.00 0.00 0.00 0.00 0.01 0.00 0.00
0.00 0.00 0.00 0.00 0.00 0.00 0.00 0.00 0.00 0.00 0.00 0.00 0.00 0.00 0.00 0.00 0.00 0.00 0.00 0.00 0.00 0.00 0.00 0.00 0.00 0.00 0.00 0.00 0.00 0.00 0.02 0.02 0.02
0.00 0.00 0.00 0.00 0.00 0.00 0.00 0.00 0.00 0.00 0.00 0.00 0.00 0.00 0.00 0.00 0.00 0.00 0.00 0.00 0.00 0.00 0.00 0.00 0.00 0.00 0.00 0.00 0.00 0.00 0.00 0.00 0.01
0.00 0.00 0.00 0.00 0.00 0.00 0.00 0.00 0.00 0.00 0.00 0.00 0.00 0.00 0.00 0.00 0.00 0.00 0.00 0.00 0.00 0.00 0.00 0.00 0.00 0.00 0.00 0.00 0.00 0.00 0.00 0.00 0.00
0.00 0.00 0.00 0.00 0.00 0.00 0.00 0.00 0.00 0.00 0.00 0.00 0.00 0.00 0.00 0.00 0.00 0.00 0.00 0.00 0.00 0.00 0.00 0.00 0.00 0.00 0.00 0.00 0.00 0.00 0.00 0.00 0.00
MSLP
1016.36 1016.62 1016.83 1017.15 1017.44 1017.64 1017.79 1017.95 1018.02 1018.14 1018.30 1018.45 1018.61 1018.73 1018.78 1018.87 1018.90 1018.84 1018.63 1018.36 1018.24 1018.24 1018.25 1018.27 1018.16 1018.07 1018.01 1017.92 1017.72 1017.48 1017.32 1017.08 1016.87
1016.51 1017.00 1017.21 1017.26 1017.53 1017.87 1018.16 1018.18 1018.27 1018.36 1018.54 1018.66 1018.84 1019.01 1019.07 1019.15 1019.21 1019.14 1018.99 1018.72 1018.58 1018.69 1018.70 1018.66 1018.65 1018.61 1018.49 1018.38 1018.17 1017.98 1017.80 1017.62 1017.43
1016.62 1017.06 1017.37 1017.47 1017.66 1017.93 1018.26 1018.52 1018.57 1018.59 1018.71 1018.87 1019.06 1019.25 1019.30 1019.43 1019.49 1019.50 1019.35 1019.10 1019.00 1019.02 1019.02 1019.02 1019.08 1019.08 1018.99 1018.90 1018.71 1018.50 1018.24 1018.06 1017.98
1016.94 1017.19 1017.42 1017.66 1017.87 1018.04 1018.33 1018.56 1018.75 1018.93 1019.02 1019.07 1019.18 1019.41 1019.57 1019.67 1019.68 1019.64 1019.57 1019.34 1019.38 1019.43 1019.51 1019.46 1019.41 1019.39 1019.34 1019.23 1019.19 1019.04 1018.91 1018.65 1018.44
1017.43 1017.55 1017.69 1017.76 1018.03 1018.32 1018.46 1018.68 1018.91 1019.06 1019.23 1019.38 1019.47 1019.55 1019.73 1019.91 1019.87 1019.84 1019.72 1019.56 1019.64 1019.75 1019.88 1019.91 1019.87 1019.73 1019.67 1019.66 1019.53 1019.40 1019.31 1019.19 1019.03
1018.02 1017.99 1018.04 1018.17 1018.21 1018.34 1018.61 1018.77 1019.02 1019.30 1019.43 1019.53 1019.70 1019.87 1020.01 1020.09 1020.11 1020.05 1019.83 1019.73 1019.84 1019.98 1020.10 1020.12 1020.19 1020.20 1020.07 1019.94 1019.86 1019.77 1019.67 1019.52 1019.47
1018.91 1018.72 1018.51 1018.48 1018.53 1018.63 1018.78 1018.88 1019.13 1019.35 1019.57 1019.72 1019.75 1020.05 1020.28 1020.31 1020.28 1020.19 1019.99 1019.91 1020.05 1020.19 1020.22 1020.35 1020.37 1020.39 1020.41 1020.30 1020.18 1020.04 1019.99 1019.94 1019.86
1019.52 1019.55 1019.39 1019.14 1018.95 1019.12 1019.04 1019.18 1019.44 1019.42 1019.49 1019.63 1019.81 1020.00 1020.35 1020.45 1020.46 1020.36 1020.25 1020.22 1020.24 1020.35 1020.39 1020.47 1020.56 1020.62 1020.65 1020.65 1020.66 1020.48 1020.36 1020.31 1020.21
1020.36 1020.24 1020.23 1020.03 1019.93 1019.60 1019.43 1019.39 1019.52 1019.59 1019.52 1019.54 1019.61 1019.82 1020.12 1020.36 1020.46 1020.49 1020.50 1020.44 1020.44 1020.40 1020.59 1020.61 1020.70 1020.76 1020.81 1020.81 1020.94 1020.83 1020.69 1020.66 1020.53
1021.28 1021.20 1020.97 1020.89 1020.68 1020.47 1020.13 1019.84 1019.69 1019.74 1019.75 1019.67 1019.67 1019.89 1020.13 1020.28 1020.46 1020.66 1020.68 1020.62 1020.59 1020.64 1020.55 1020.73 1020.77 1020.77 1020.87 1020.94 1021.05 1021.15 1020.98 1020.90 1020.93
1021.59 1021.79 1021.80 1021.46 1021.39 1021.11 1020.80 1020.50 1020.23 1020.16 1020.05 1020.13 1020.15 1020.24 1020.38 1020.50 1020.61 1020.83 1020.90 1020.84 1020.70 1020.71 1020.72 1020.59 1020.71 1020.82 1020.85 1021.05 1021.11 1021.18 1021.24 1021.07 1021.10
1021.80 1021.69 1022.35 1022.10 1021.88 1021.62 1021.11 1020.93 1020.61 1020.53 1020.56 1020.59 1020.63 1020.64 1020.71 1020.75 1020.83 1020.88 1021.00 1021.09 1020.91 1020.87 1020.73 1020.76 1020.80 1020.84 1020.87 1020.87 1021.12 1021.20 1021.23 1021.28 1021.26
1022.25 1021.98 1022.46 1022.53 1022.39 1022.22 1022.01 1021.60 1021.34 1021.12 1021.12 1021.14 1021.20 1021.14 1021.00 1021.05 1021.02 1020.99 1021.14 1021.24 1021.06 1020.95 1020.79 1020.79 1020.88 1020.97 1021.07 1020.95 1020.86 1021.26 1021.36 1021.31 1021.33
1022.86 1022.68 1023.10 1022.54 1022.62 1022.87 1023.07 1022.51 1022.23 1021.95 1021.74 1021.51 1021.54 1021.45 1021.41 1021.40 1021.22 1021.07 1021.25 1021.40 1021.35 1021.11 1020.87 1020.78 1020.87 1021.04 1021.13 1021.10 1020.98 1021.07 1021.39 1021.52 1021.41
1023.24 1023.32 1022.90 1022.84 1022.90 1023.42 1023.73 1023.31 1023.12 1022.85 1022.82 1022.06 1021.67 1021.64 1021.36 1021.52 1021.61 1021.67 1021.46 1021.59 1021.51 1021.35 1021.02 1020.88 1021.07 1021.21 1021.22 1021.16 1021.05 1020.96 1021.10 1021.35 1021.52
1023.54 1023.47 1023.33 1023.74 1022.92 1023.77 1024.23 1023.82 1024.01 1023.36 1023.60 1022.64 1021.83 1021.70 1021.38 1021.47 1021.78 1022.08 1021.96 1021.91 1021.78 1021.64 1021.42 1021.19 1021.13 1021.52 1021.79 1021.64 1021.46 1021.14 1020.98 1021.08 1021.34
1024.32 1023.82 1024.10 1024.28 1023.57 1024.08 1024.06 1024.32 1024.42 1024.26 1024.20 1024.07 1023.15 1021.86 1021.98 1022.22 1022.33 1022.35 1022.43 1022.79 1022.56 1022.31 1022.05 1021.80 1021.71 1021.97 1022.27 1022.42 1022.15 1021.75 1021.36 1021.14 1021.41
1025.25 1024.65 1024.45 1024.68 1024.48 1024.15 1024.89 1024.60 1024.31 1024.63 1025.12 1024.64 1025.03 1022.81 1022.49 1022.90 1023.00 1023.38 1023.32 1023.48 1023.50 1023.40 1023.10 1022.69 1022.60 1022.71 1023.00 1022.92 1022.83 1022.74 1022.40 1022.12 1021.82
1025.04 1024.57 1024.19 1024.66 1024.64 1024.43 1025.02 1024.54 1024.79 1024.77 1024.71 1025.94 1025.05 1023.94 1023.32 1023.12 1024.29 1024.09 1024.11 1024.06 1024.19 1024.28 1024.31 1023.97 1023.65 1023.66 1023.73 1023.81 1023.64 1023.54 1023.02 1022.90 1022.57
1025.10 1025.00 1024.36 1024.92 1024.54 1024.90 1025.39 1024.81 1024.74 1024.93 1025.62 1025.95 1025.63 1025.04 1024.10 1023.49 1024.77 1024.47 1024.85 1024.96 1024.95 1024.95 1025.19 1025.05 1024.82 1024.66 1024.67 1024.57 1024.31 1024.22 1024.05 1023.46 1023.20
Thickness
5710 5711 5713 5714 5713 5714 5714 5714 5716 5716 5715 5715 5714 5714 5715 5715 5715 5716 5716 5718 5718 5717 5716 5715 5714 5713 5712 5711 5712 5712 5712 5713 5713
5705 5704 5706 5710 5710 5709 5709 5710 5712 5713 5712 5712 5712 5712 5713 5714 5713 5714 5714 5715 5715 5714 5713 5712 5711 5710 5709 5708 5708 5708 5709 5709 5709
5701 5700 5701 5704 5705 5705 5705 5705 5707 5708 5709 5709 5709 5709 5710 5711 5711 5710 5711 5712 5712 5712 5711 5710 5708 5706 5705 5704 5704 5704 5705 5705 5704
5696 5695 5696 5698 5699 5701 5701 5701 5703 5703 5704 5706 5707 5707 5707 5708 5708 5708 5709 5708 5708 5707 5706 5706 5705 5703 5703 5702 5701 5699 5699 5700 5701
5689 5690 5691 5693 5695 5696 5698 5697 5696 5698 5700 5700 5702 5703 5703 5704 5705 5706 5706 5706 5705 5704 5702 5701 5700 5700 5699 5698 5698 5697 5696 5695 5695
5681 5683 5685 5686 5689 5692 5693 5693 5692 5693 5694 5695 5696 5697 5699 5700 5701 5701 5702 5703 5703 5701 5699 5698 5696 5695 5695 5695 5695 5693 5693 5692 5690
5669 5674 5677 5680 5682 5686 5687 5688 5689 5690 5691 5690 5692 5692 5693 5694 5696 5697 5698 5699 5698 5697 5697 5694 5693 5692 5690 5691 5691 5690 5689 5688 5687
5659 5663 5667 5670 5675 5677 5682 5683 5683 5685 5687 5688 5687 5688 5688 5689 5690 5691 5692 5693 5694 5693 5693 5691 5689 5687 5686 5686 5685 5686 5685 5684 5683
5645 5651 5654 5658 5662 5667 5672 5676 5677 5678 5680 5683 5683 5683 5683 5684 5685 5686 5686 5687 5688 5690 5688 5687 5686 5684 5683 5683 5680 5681 5681 5680 5680
5630 5635 5641 5645 5649 5655 5661 5666 5671 5671 5672 5676 5678 5677 5677 5678 5679 5679 5680 5681 5683 5683 5685 5682 5681 5681 5680 5679 5678 5675 5676 5677 5675
5616 5621 5626 5633 5637 5641 5648 5654 5660 5663 5666 5665 5669 5671 5671 5672 5672 5673 5673 5675 5678 5679 5678 5679 5678 5677 5677 5675 5675 5673 5672 5674 5672
5607 5612 5611 5618 5624 5629 5636 5641 5648 5653 5655 5658 5658 5661 5664 5666 5666 5667 5667 5668 5672 5673 5674 5673 5673 5674 5673 5673 5670 5670 5670 5669 5669
5594 5601 5601 5605 5610 5615 5621 5627 5634 5641 5644 5646 5648 5650 5655 5657 5660 5661 5662 5662 5665 5667 5668 5669 5668 5667 5667 5668 5670 5664 5666 5667 5666
5585 5589 5588 5597 5600 5602 5604 5612 5618 5625 5631 5636 5638 5641 5645 5648 5651 5655 5655 5655 5656 5659 5662 5663 5665 5664 5663 5663 5665 5664 5660 5660 5662
5570 5575 5584 5588 5591 5591 5591 5598 5603 5610 5613 5624 5628 5631 5637 5639 5641 5643 5647 5648 5649 5650 5653 5656 5657 5658 5659 5659 5660 5662 5660 5657 5656
5557 5564 5571 5571 5582 5578 5577 5585 5588 5596 5595 5607 5618 5621 5628 5631 5632 5631 5635 5638 5641 5643 5646 5647 5650 5650 5650 5652 5652 5656 5658 5656 5654
5539 5549 5552 5557 5567 5568 5572 5573 5577 5582 5584 5587 5596 5614 5615 5616 5619 5620 5623 5624 5628 5632 5636 5639 5640 5640 5641 5641 5643 5645 5649 5651 5649
5517 5529 5538 5542 5548 5556 5554 5561 5567 5569 5568 5572 5570 5597 5605 5600 5602 5602 5605 5609 5612 5616 5621 5626 5628 5629 5630 5631 5633 5633 5635 5638 5641
5510 5519 5528 5530 5535 5541 5541 5551 5553 5556 5560 5553 5559 5572 5582 5589 5585 5586 5589 5594 5597 5601 5603 5608 5614 5615 5617 5617 5618 5619 5624 5625 5628
5497 5504 5515 5515 5525 5527 5527 5535 5541 5542 5541 5540 5546 5553 5564 5574 5570 5577 5575 5575 5580 5585 5587 5591 5596 5599 5600 5603 5605 5606 5607 5613 5615